Change the Weather History Date:

Thursday, August 8, 2013

  Actual Average Record
Temperature  
Mean Temperature 65 °F -  
Max Temperature 73 °F 83 °F 96 °F (2000)
Min Temperature 57 °F 55 °F 53 °F (1996)
Growing Degree Days 15 (Base 50)    
Moisture  
Dew Point 55 °F    
Average Humidity 70    
Maximum Humidity 94    
Minimum Humidity 49    
Precipitation  
Precipitation 0.00 in - - ()
Sea Level Pressure  
Sea Level Pressure 30.15 in    
Wind  
Wind Speed 6 mph (NE)    
Max Wind Speed 10 mph    
Max Gust Speed -    
Visibility 9 miles    
Events      
Averages and records for this station are not official NWS values.
T = Trace of Precipitation, MM = Missing Value Source: NWS Daily Summary

Daily Weather History Graph

Daily Weather History Graph

Search for Another Location

Airport or City:

Trip Planner

Search our weather history database for the weather conditions in past years. The results will help you decide how hot, cold, wet, or windy it might be!

Date:

Astronomy

Aug. 08, 2013 Rise Set
Actual Time 6:04 AM MDT 8:06 PM MDT
Civil Twilight 5:34 AM MDT 8:36 PM MDT
Nautical Twilight 4:57 AM MDT 9:12 PM MDT
Astronomical Twilight 4:18 AM MDT 9:51 PM MDT
Moon 7:54 AM MDT (8/8) 8:45 PM MDT (8/8)
Length of Visible Light 15h 01m
Length of Day
14h 01m
Waxing Crescent, 3% of the Moon is Illuminated
Aug 8
Waxing Crescent
Aug 14
First Quarter
Aug 20
Full
Aug 28
Last Quarter
Sep 5
New

Hourly Weather History & Observations

Time (MDT) Temp. Dew Point Humidity Pressure Visibility Wind Dir Wind Speed Gust Speed Precip Events Conditions
12:15 AM 60.8 °F 55.4 °F 82% 30.09 in 10.0 mi ENE 5.8 mph - N/A   Clear
12:35 AM 59.0 °F 55.4 °F 88% 30.09 in 10.0 mi ENE 6.9 mph - N/A   Clear
12:55 AM 57.2 °F 55.4 °F 94% 30.10 in 10.0 mi NNE 5.8 mph - N/A   Clear
1:15 AM 57.2 °F 55.4 °F 94% 30.10 in 9.0 mi ENE 8.1 mph - N/A   Clear
1:35 AM 57.2 °F 55.4 °F 94% 30.10 in 8.0 mi ENE 9.2 mph - N/A   Scattered Clouds
1:55 AM 59.0 °F 55.4 °F 88% 30.11 in 7.0 mi ENE 8.1 mph - N/A   Overcast
2:35 AM 59.0 °F 57.2 °F 94% 30.12 in 6.0 mi NNE 5.8 mph - N/A   Overcast
2:55 AM 59.0 °F 57.2 °F 94% 30.11 in 5.0 mi NNE 5.8 mph - N/A   Overcast
3:15 AM 59.0 °F 57.2 °F 94% 30.11 in 5.0 mi NE 3.5 mph - N/A   Overcast
3:35 AM 59.0 °F 57.2 °F 94% 30.11 in 4.0 mi NNW 3.5 mph - N/A   Overcast
3:55 AM 59.0 °F 57.2 °F 94% 30.11 in 5.0 mi NW 5.8 mph - N/A   Overcast
4:15 AM 59.0 °F 57.2 °F 94% 30.11 in 5.0 mi Calm Calm - N/A   Overcast
4:35 AM 59.0 °F 57.2 °F 94% 30.11 in 5.0 mi North 6.9 mph - N/A   Overcast
4:55 AM 60.8 °F 57.2 °F 88% 30.11 in 5.0 mi North 5.8 mph - N/A   Overcast
5:15 AM 60.8 °F 57.2 °F 88% 30.11 in 6.0 mi North 6.9 mph - N/A   Overcast
6:15 AM 60.8 °F 57.2 °F 88% 30.14 in 8.0 mi NNE 6.9 mph - N/A   Overcast
6:35 AM 60.8 °F 57.2 °F 88% 30.15 in 10.0 mi NNE 6.9 mph - N/A   Overcast
1:15 PM 71.6 °F 59.0 °F 64% 30.18 in 10.0 mi SE 8.1 mph - N/A   Mostly Cloudy
1:35 PM 69.8 °F 57.2 °F 64% 30.17 in 10.0 mi SE 6.9 mph - N/A   Mostly Cloudy
1:55 PM 71.6 °F 57.2 °F 60% 30.17 in 10.0 mi SSE 5.8 mph - N/A   Mostly Cloudy
2:15 PM 69.8 °F 57.2 °F 64% 30.16 in 10.0 mi SSE 10.4 mph - N/A   Overcast
2:35 PM 69.8 °F 57.2 °F 64% 30.16 in 10.0 mi South 6.9 mph - N/A   Overcast
2:55 PM 69.8 °F 57.2 °F 64% 30.16 in 10.0 mi ESE 5.8 mph - N/A   Overcast
3:15 PM 71.6 °F 57.2 °F 60% 30.16 in 10.0 mi SSE 4.6 mph - N/A   Mostly Cloudy
3:35 PM 71.6 °F 57.2 °F 60% 30.15 in 10.0 mi SE 4.6 mph - N/A   Partly Cloudy
3:55 PM 71.6 °F 55.4 °F 57% 30.15 in 10.0 mi SE 3.5 mph - N/A   Partly Cloudy
4:15 PM 73.4 °F 57.2 °F 57% 30.15 in 10.0 mi Calm Calm - N/A   Clear
4:35 PM 73.4 °F 57.2 °F 57% 30.15 in 10.0 mi West 8.1 mph - N/A   Clear
4:55 PM 73.4 °F 55.4 °F 53% 30.15 in 10.0 mi West 6.9 mph - N/A   Partly Cloudy
5:15 PM 71.6 °F 55.4 °F 57% 30.15 in 10.0 mi West 4.6 mph - N/A   Clear
5:35 PM 73.4 °F 55.4 °F 53% 30.15 in 10.0 mi WNW 4.6 mph - N/A   Clear
5:55 PM 73.4 °F 55.4 °F 53% 30.15 in 10.0 mi NW 4.6 mph - N/A   Clear
6:15 PM 71.6 °F 55.4 °F 57% 30.15 in 10.0 mi NW 6.9 mph - N/A   Clear
6:35 PM 71.6 °F 55.4 °F 57% 30.15 in 10.0 mi North 8.1 mph - N/A   Clear
6:55 PM 73.4 °F 55.4 °F 53% 30.14 in 10.0 mi North 6.9 mph - N/A   Clear
7:15 PM 71.6 °F 55.4 °F 57% 30.14 in 10.0 mi NW 5.8 mph - N/A   Clear
7:35 PM 71.6 °F 55.4 °F 57% 30.15 in 10.0 mi North 4.6 mph - N/A   Clear
7:55 PM 71.6 °F 51.8 °F 50% 30.15 in 10.0 mi NE 9.2 mph - N/A   Clear
8:15 PM 68.0 °F 48.2 °F 49% 30.16 in 10.0 mi ENE 8.1 mph - N/A   Clear
8:35 PM 66.2 °F 48.2 °F 52% 30.18 in 10.0 mi ENE 10.4 mph - N/A   Partly Cloudy
8:55 PM 66.2 °F 48.2 °F 52% 30.19 in 10.0 mi East 8.1 mph - N/A   Mostly Cloudy
9:15 PM 66.2 °F 51.8 °F 60% 30.20 in 10.0 mi ESE 6.9 mph - N/A   Partly Cloudy
9:35 PM 66.2 °F 53.6 °F 64% 30.21 in 10.0 mi Calm Calm - N/A   Clear
9:55 PM 64.4 °F 51.8 °F 64% 30.21 in 10.0 mi West 3.5 mph - N/A   Partly Cloudy
10:15 PM 62.6 °F 51.8 °F 68% 30.21 in 10.0 mi Calm Calm - N/A   Clear
10:35 PM 64.4 °F 51.8 °F 64% 30.21 in 10.0 mi Calm Calm - N/A   Clear
10:55 PM 62.6 °F 51.8 °F 68% 30.21 in 10.0 mi South 3.5 mph - N/A   Mostly Cloudy
11:15 PM 62.6 °F 51.8 °F 68% 30.22 in 10.0 mi South 4.6 mph - N/A   Scattered Clouds
11:35 PM 62.6 °F 51.8 °F 68% 30.21 in 10.0 mi SW 5.8 mph - N/A   Partly Cloudy
11:55 PM 62.6 °F 51.8 °F 68% 30.22 in 10.0 mi NE 8.1 mph - N/A   Clear